Weather History for Kotzebue, AK

Change the Weather History Date:

Saturday, March 2, 2013

  Actual Average Record
Temperature  
Mean Temperature -21 °F -  
Max Temperature -7 °F - 35 °F (2003)
Min Temperature -35 °F -7 °F -43 °F (1929)
Degree Days  
Heating Degree Days 86 65  
Month to date heating degree days 174 130  
Since 1 July heating degree days 10460 10372  
Cooling Degree Days 0    
Month to date cooling degree days 0  
Year to date cooling degree days 0  
Moisture  
Dew Point -24 °F    
Average Humidity 0    
Maximum Humidity 0    
Minimum Humidity 0    
Precipitation  
Precipitation 0.00 in 0.02 in 0.17 in (1976)
Month to date precipitation 0.00 0.04  
Year to date precipitation 2.06 1.32  
Snow  
Snow 0.00 in 0.20 in 2.10 in (2006)
Month to date snowfall 0.0 0.5  
Since 1 July snowfall 24.3 48.1  
Snow Depth 10.00 in    
Sea Level Pressure  
Sea Level Pressure 30.18 in    
Wind  
Wind Speed 5 mph (ENE)    
Max Wind Speed 12 mph    
Max Gust Speed 13 mph    
Visibility 10 miles    
Events      
T = Trace of Precipitation, MM = Missing Value Source: NWS Daily Summary

Daily Weather History Graph

Daily Weather History Graph

Search for Another Location

Airport:

Trip Planner

Search our weather history database for the weather conditions in past years. The results will help you decide how hot, cold, wet, or windy it might be!

Date:

Astronomy

Mar. 02, 2013 Rise Set
Actual Time 8:59 AM AKST 7:06 PM AKST
Civil Twilight 8:06 AM AKST 8:00 PM AKST
Nautical Twilight 7:05 AM AKST 9:01 PM AKST
Astronomical Twilight 6:00 AM AKST 10:06 PM AKST
Moon 2:26 AM AKST (3/2) 8:55 AM AKST (3/2)
Length of Visible Light 11h 53m
Length of Day
10h 06m
Waning Gibbous, 72% of the Moon is Illuminated
Mar 2
Waning Gibbous
Mar 4
Last Quarter
Mar 11
New
Mar 19
First Quarter
Mar 27
Full

Hourly Weather History & Observations

Time (AKST) Temp. Windchill Dew Point Humidity Pressure Visibility Wind Dir Wind Speed Gust Speed Precip Events Conditions
12:53 AM -27.0 °F - -33.0 °F 73% 30.17 in 10.0 mi Calm Calm - N/A   Clear
1:53 AM -29.9 °F - - N/A% 30.16 in 10.0 mi Calm Calm - N/A   Clear
3:53 AM -26.0 °F -42.4 °F -29.9 °F 81% 30.16 in 10.0 mi ESE 5.8 mph - N/A   Clear
4:53 AM -32.1 °F - - N/A% 30.15 in 10.0 mi Calm Calm - N/A   Clear
5:53 AM -33.0 °F -45.5 °F - N/A% 30.16 in 10.0 mi ENE 3.5 mph - N/A   Clear
6:53 AM -27.9 °F -42.5 °F -32.1 °F 81% 30.17 in 10.0 mi NE 4.6 mph - N/A   Clear
7:53 AM -29.0 °F -49.5 °F -33.0 °F 81% 30.16 in 9.0 mi East 8.1 mph - N/A   Clear
8:53 AM -27.0 °F -48.5 °F -33.0 °F 73% 30.17 in 8.0 mi East 9.2 mph - N/A   Clear
9:53 AM -25.1 °F -36.5 °F -31.0 °F 74% 30.20 in 10.0 mi East 3.5 mph - N/A   Clear
10:53 AM -20.9 °F -34.3 °F -25.1 °F 81% 30.20 in 10.0 mi East 4.6 mph - N/A   Clear
11:53 AM -20.0 °F -37.1 °F -26.0 °F 74% 30.22 in 10.0 mi NE 6.9 mph - N/A   Clear
12:53 PM -18.0 °F -36.1 °F -24.0 °F 74% 30.20 in 10.0 mi ENE 8.1 mph - N/A   Clear
1:53 PM -15.0 °F - -20.9 °F 75% 30.22 in 10.0 mi Calm Calm - N/A   Clear
2:53 PM -15.0 °F -27.4 °F -20.9 °F 75% 30.21 in 9.0 mi NE 4.6 mph - 0.00 in   Clear
3:53 PM -14.1 °F -29.9 °F -20.0 °F 75% 30.19 in 10.0 mi ENE 6.9 mph - N/A   Clear
4:53 PM -13.0 °F -27.0 °F -18.9 °F 75% 30.20 in 10.0 mi ENE 5.8 mph - N/A   Clear
5:53 PM -11.0 °F -22.8 °F -18.0 °F 71% 30.20 in 10.0 mi ENE 4.6 mph - N/A   Clear
6:53 PM -9.9 °F -19.2 °F -17.0 °F 71% 30.20 in 10.0 mi ENE 3.5 mph - N/A   Clear
7:53 PM -16.1 °F -30.6 °F -20.9 °F 79% 30.19 in 10.0 mi NE 5.8 mph - N/A   Clear
8:53 PM -15.0 °F -32.4 °F -20.9 °F 75% 30.19 in 10.0 mi ENE 8.1 mph - N/A   Clear
9:53 PM -11.0 °F -30.9 °F -17.0 °F 75% 30.17 in 10.0 mi NE 11.5 mph - N/A   Clear
10:53 PM -11.0 °F -28.8 °F -16.1 °F 78% 30.17 in 10.0 mi ENE 9.2 mph - N/A   Clear
11:53 PM -8.0 °F -16.9 °F -14.1 °F 75% 30.18 in 10.0 mi Variable 3.5 mph - N/A   Clear